Location: Torrington
(42.0650°N, 104.1810°W)
Time: 21:30:35
(UTC-06:00)

Amateur Radio Satellites - All Passes

Search period start: 28 March 2017 21:00
Search period end: 29 March 2017 21:00
Location: Torrington, 42.0650°N, 104.1810°W

Satellite Date Start Highest point End Downlink Frequencies (MHz)
Time Altitude Azimuth
AAUSAT CUBESAT 2 28 Mar 21:00:56 21:04:42 36° 263° (W) 21:08:30 437.432
M-CUBED/EXP-1 PRIME 28 Mar 21:03:20 21:06:18 17° 302° (WNW) 21:09:16 437.505
UWE-3 28 Mar 21:04:48 21:09:13 42° 262° (W) 21:13:35 435.000/436.395/437.385
STRAND 1 28 Mar 21:16:29 21:21:08 36° 292° (WNW) 21:25:46 437.568
Oscar 11 28 Mar 21:27:53 21:32:04 49° 261° (W) 21:36:16 .
YUBILEINY 28 Mar 21:33:45 21:36:54 12° 287° (WNW) 21:40:03 435.215
ZACube-1 28 Mar 21:40:22 21:44:21 30° 264° (W) 21:48:18 437.345
CUBEBUG 2 28 Mar 21:47:24 21:48:47 11° 272° (W) 21:50:10 437.445
BEESAT 3 28 Mar 21:49:26 21:53:02 37° 116° (ESE) 21:56:43 437.485
HO-68 28 Mar 21:54:22 21:54:44 10° 275° (W) 21:55:07 435.675
TIGRISAT 28 Mar 21:55:30 21:57:10 12° 89° (E) 21:58:50 435.000
DELFI C3 28 Mar 21:57:20 22:01:14 75° 259° (W) 22:05:10 145.870
PRISM 28 Mar 22:05:11 22:08:57 32° 97° (E) 22:12:41 437.425
UNISAT 6 28 Mar 22:05:25 22:08:20 17° 92° (E) 22:11:10 437.425
Tancredo 1 28 Mar 22:06:32 22:09:01 21° 343° (NNW) 22:11:31 437.200
SO-50 28 Mar 22:08:11 22:11:41 21° 43° (NE) 22:15:09 436.795
AO-73 28 Mar 22:08:27 22:11:26 17° 268° (W) 22:14:25 145.935
BEESAT 2 28 Mar 22:11:12 22:14:27 25° 114° (ESE) 22:17:45 435.950
ISS 28 Mar 22:18:08 22:20:41 21° 344° (NNW) 22:23:16 437.550
FO-29 28 Mar 22:22:07 22:25:57 18° 88° (E) 22:29:34 435.910
ESTCUBE 1 28 Mar 22:35:12 22:38:31 21° 65° (ENE) 22:41:50 437.505/2401.250
AO-85 28 Mar 22:42:26 22:43:58 12° 322° (NW) 22:45:28 145.980
LO-87 28 Mar 22:45:26 22:48:50 42° 73° (ENE) 22:52:17 145.935 - 145.965
RS-15 28 Mar 22:49:40 23:01:24 56° 248° (WSW) 23:12:35 29.354- 29.394
AIST 2D 28 Mar 23:18:44 23:20:04 12° 91° (E) 23:21:23 435.315
BEESAT 3 28 Mar 23:27:35 23:30:44 22° 314° (NW) 23:33:57 437.485
TIGRISAT 28 Mar 23:29:57 23:34:18 61° 286° (WNW) 23:38:32 435.000
50 SAT 28 Mar 23:30:33 23:31:33 11° 64° (ENE) 23:32:34 437.505
NANOSAT C BR1 28 Mar 23:34:35 23:35:30 11° 89° (E) 23:36:25 145.865
VELOX 1 28 Mar 23:35:49 23:39:32 27° 68° (ENE) 23:43:18 145.980
EO-79 28 Mar 23:39:42 23:41:54 14° 91° (E) 23:44:06 145.935-145.965
PRISM 28 Mar 23:40:49 23:44:02 22° 293° (WNW) 23:47:16 437.425
UNISAT 6 28 Mar 23:41:06 23:45:16 43° 289° (WNW) 23:49:20 437.425
Tancredo 1 28 Mar 23:44:06 23:46:01 15° 3° (N) 23:47:56 437.200
SO-50 28 Mar 23:48:02 23:52:25 52° 241° (WSW) 23:56:47 436.795
BEESAT 2 28 Mar 23:48:32 23:52:05 31° 311° (NW) 23:55:42 435.950
ISS 28 Mar 23:55:58 23:58:04 16° 5° (N) 00:00:11 437.550
SPROUT 28 Mar 23:59:45 00:03:47 41° 71° (ENE) 00:07:50 437.525
FO-29 29 Mar 00:05:50 00:11:40 59° 289° (WNW) 00:16:56 435.910
POLYITAN 1 29 Mar 00:07:29 00:11:09 28° 96° (E) 00:14:47 437.675
ESTCUBE 1 29 Mar 00:10:52 00:15:03 39° 262° (W) 00:19:16 437.505/2401.250
QB50P2 29 Mar 00:12:06 00:15:58 34° 97° (E) 00:19:49 145.880/145.840
DUCHIFAT 1 29 Mar 00:20:10 00:23:58 32° 97° (E) 00:27:42 145.980
LO-87 29 Mar 00:21:03 00:22:31 12° 269° (W) 00:24:00 145.935 - 145.965
BUGSAT 1 29 Mar 00:27:08 00:28:53 12° 90° (E) 00:30:36 437.445
DX 1 29 Mar 00:39:37 00:43:51 54° 73° (ENE) 00:48:07 434.975-435.025
AIST 2D 29 Mar 00:50:12 00:53:29 39° 287° (WNW) 00:56:44 435.315
50 SAT 29 Mar 01:00:51 01:04:10 45° 260° (W) 01:07:32 437.505
NANOSAT C BR1 29 Mar 01:07:27 01:11:39 65° 285° (WNW) 01:15:47 145.865
VELOX 1 29 Mar 01:12:07 01:15:54 28° 264° (W) 01:19:45 145.980
EO-79 29 Mar 01:13:51 01:17:58 50° 287° (WNW) 01:22:02 145.935-145.965
UKube-1 29 Mar 01:14:08 01:18:26 88° 256° (WSW) 01:22:48 .
Tancredo 1 29 Mar 01:20:03 01:22:53 29° 23° (NNE) 01:25:44 437.200
Gurwin Techsat 1B 29 Mar 01:25:53 01:26:23 10° 87° (E) 01:26:52 435.225
ISS 29 Mar 01:32:16 01:35:17 32° 24° (NNE) 01:38:17 437.550
SPROUT 29 Mar 01:36:56 01:39:52 18° 268° (W) 01:42:48 437.525
POLYITAN 1 29 Mar 01:43:22 01:46:50 25° 292° (WNW) 01:50:15 437.675
QB50P2 29 Mar 01:48:21 01:51:33 21° 294° (WNW) 01:54:43 145.880/145.840
DUCHIFAT 1 29 Mar 01:56:12 01:59:27 22° 293° (WNW) 02:02:41 145.980
BUGSAT 1 29 Mar 02:00:30 02:04:36 55° 287° (WNW) 02:08:36 437.445
MOZHAYETS 4 29 Mar 02:16:56 02:19:13 14° 62° (ENE) 02:21:30
DX 1 29 Mar 02:18:08 02:20:22 14° 269° (W) 02:22:36 434.975-435.025
O/OREOS (USA 219) 29 Mar 02:20:15 02:24:49 58° 65° (ENE) 02:29:21 437.305
BEESAT 29 Mar 02:21:58 02:26:21 37° 69° (ENE) 02:30:45 436.000
Oscar 19 29 Mar 02:25:15 02:30:26 70° 102° (ESE) 02:35:35 437.125/150
ITUPSAT 1 29 Mar 02:39:45 02:44:25 55° 72° (ENE) 02:49:06 437.325
AO-7 29 Mar 02:51:50 02:55:35 14° 88° (E) 02:59:19 .
Tancredo 1 29 Mar 02:56:03 02:59:06 42° 220° (SW) 03:02:08 437.200
Gurwin Techsat 1B 29 Mar 03:01:43 03:07:05 86° 105° (ESE) 03:12:23 435.225
ISS 29 Mar 03:08:42 03:11:47 37° 222° (SW) 03:14:51 437.550
KKS-1 29 Mar 03:15:12 03:17:00 12° 60° (ENE) 03:18:48 437.445
STARS 29 Mar 03:44:14 03:45:19 11° 60° (ENE) 03:46:22 437.465
AO-85 29 Mar 03:50:35 03:52:15 12° 39° (NE) 03:53:54 145.980
MOZHAYETS 4 29 Mar 03:51:16 03:55:50 67° 259° (W) 04:00:24
BEESAT 29 Mar 04:00:23 04:04:12 24° 265° (W) 04:08:03 436.000
O/OREOS (USA 219) 29 Mar 04:01:16 04:03:42 14° 262° (W) 04:06:07 437.305
Oscar 19 29 Mar 04:06:04 04:09:09 16° 300° (WNW) 04:12:15 437.125/150
ITAMSAT 1 29 Mar 04:18:19 04:23:33 74° 103° (ESE) 04:28:42 435.822/435.867
ITUPSAT 1 29 Mar 04:19:37 04:22:34 16° 268° (W) 04:25:31 437.325
AO-7 29 Mar 04:41:21 04:49:40 74° 106° (ESE) 04:57:57 .
Gurwin Techsat 1B 29 Mar 04:43:40 04:46:16 14° 302° (WNW) 04:48:52 435.225
KKS-1 29 Mar 04:48:29 04:52:56 74° 257° (WSW) 04:57:26 437.445
CUBESAT XI-V 29 Mar 04:51:01 04:55:35 85° 80° (E) 05:00:13 437.345
STARS 29 Mar 05:16:31 05:20:57 83° 255° (WSW) 05:25:26 437.465
AO-85 29 Mar 05:29:14 05:33:10 86° 238° (WSW) 05:37:13 145.980
DOVE 4 29 Mar 05:54:13 05:58:02 20° 91° (E) 06:01:47 437.250
NO-84 29 Mar 05:57:53 06:00:34 34° 134° (SE) 06:03:12 435.350 FM
ITAMSAT 1 29 Mar 05:59:26 06:02:22 15° 301° (WNW) 06:05:18 435.822/435.867
BEESAT 3 29 Mar 06:05:45 06:09:15 27° 48° (NE) 06:12:42 437.485
XW-2D 29 Mar 06:06:06 06:07:51 13° 91° (E) 06:09:37 145.860 - 145.880
XW-2B 29 Mar 06:11:47 06:13:56 15° 92° (E) 06:16:04 145.730 - 145.750
M-CUBED/EXP-1 PRIME 29 Mar 06:14:05 06:17:50 78° 70° (ENE) 06:21:57 437.505
XW-2C 29 Mar 06:21:35 06:24:21 19° 94° (E) 06:27:06 145.795 - 145.815
BEESAT 2 29 Mar 06:28:10 06:31:17 21° 45° (NE) 06:34:23 435.950
CUTE-I 29 Mar 06:29:22 06:33:49 26° 94° (E) 06:38:13 437.470
AO-7 29 Mar 06:35:06 06:41:42 28° 306° (NW) 06:48:18 .
YUBILEINY 29 Mar 06:39:32 06:46:38 29° 82° (E) 06:53:43 435.215
STRAND 1 29 Mar 06:53:36 06:58:25 41° 69° (ENE) 07:03:14 437.568
XW-2F 29 Mar 07:10:39 07:14:23 79° 102° (ESE) 07:18:07 145.980 - 146.000
LilacSat-2 29 Mar 07:17:28 07:21:15 78° 283° (WNW) 07:24:59 437.200
HO-68 29 Mar 07:26:40 07:32:14 24° 93° (E) 07:37:46 435.675
NUDT-PHONESAT 29 Mar 07:27:14 07:30:55 77° 284° (WNW) 07:34:35 437.300
DOVE 4 29 Mar 07:30:50 07:36:01 53° 288° (WNW) 07:41:03 437.250
SEEDS 29 Mar 07:33:48 07:34:51 11° 89° (E) 07:35:55 437.485
NO-84 29 Mar 07:35:55 07:38:10 21° 331° (NNW) 07:40:25 435.350 FM
KAITUO 1B 29 Mar 07:38:27 07:42:04 54° 285° (WNW) 07:45:40 145.475/437.950
XW-2D 29 Mar 07:38:43 07:42:16 42° 287° (WNW) 07:45:49 145.860 - 145.880
BEESAT 3 29 Mar 07:43:18 07:46:49 29° 245° (WSW) 07:50:18 437.485
CUTE 1.7 + AOD 2 29 Mar 07:44:27 07:47:49 23° 94° (E) 07:51:11 437.475
XW-2B 29 Mar 07:44:48 07:48:17 37° 288° (WNW) 07:51:44 145.730 - 145.750
XW-2C 29 Mar 07:55:20 07:58:33 27° 290° (WNW) 08:01:46 145.795 - 145.815
CUBEBUG 2 29 Mar 07:59:01 08:01:32 15° 90° (E) 08:03:59 437.445
BEESAT 2 29 Mar 08:05:23 08:09:15 43° 243° (WSW) 08:13:04 435.950
CUTE-I 29 Mar 08:08:59 08:13:58 41° 291° (WNW) 08:18:55 437.470
XW-2A 29 Mar 08:24:53 08:28:17 90° 307° (NW) 08:31:38 145.665 - 145.685
STRAND 1 29 Mar 08:33:33 08:37:43 24° 266° (W) 08:41:54 437.568
YUBILEINY 29 Mar 08:34:10 08:42:48 62° 282° (WNW) 08:51:27 435.215
FO-29 29 Mar 08:35:47 08:39:17 14° 54° (NE) 08:42:39 435.910
AAUSAT CUBESAT 2 29 Mar 08:42:18 08:46:01 31° 96° (E) 08:49:44 437.432
PCSat 29 Mar 08:45:59 08:50:47 34° 110° (ESE) 08:55:38 145.827
UWE-3 29 Mar 08:54:05 08:58:03 36° 97° (E) 09:01:54 435.000/436.395/437.385
TIGRISAT 29 Mar 08:54:23 08:56:42 14° 62° (ENE) 08:59:00 435.000
PRISM 29 Mar 08:55:03 08:58:21 24° 67° (ENE) 09:01:41 437.425
UNISAT 6 29 Mar 09:04:30 09:07:42 19° 65° (ENE) 09:10:53 437.425
SEEDS 29 Mar 09:06:47 09:10:57 64° 285° (WNW) 09:15:07 437.485
HO-68 29 Mar 09:13:22 09:20:28 66° 290° (WNW) 09:27:32 435.675
Oscar 11 29 Mar 09:14:47 09:18:29 28° 96° (E) 09:22:10 .
CUTE 1.7 + AOD 2 29 Mar 09:19:57 09:23:40 30° 290° (WNW) 09:27:22 437.475
ZACube-1 29 Mar 09:27:43 09:31:49 49° 99° (E) 09:35:50 437.345
CUBEBUG 2 29 Mar 09:34:15 09:38:28 47° 288° (WNW) 09:42:32 437.445
DELFI C3 29 Mar 09:35:27 09:37:25 13° 91° (E) 09:39:22 145.870
AO-73 29 Mar 09:54:12 09:58:25 89° 283° (WNW) 10:02:33 145.935
FO-29 29 Mar 10:15:28 10:23:09 66° 72° (ENE) 10:30:16 435.910
AAUSAT CUBESAT 2 29 Mar 10:18:06 10:21:18 22° 292° (WNW) 10:24:30 437.432
TIGRISAT 29 Mar 10:28:08 10:32:49 70° 258° (WSW) 10:37:28 435.000
PCSat 29 Mar 10:29:07 10:34:06 37° 308° (NW) 10:39:09 145.827
PRISM 29 Mar 10:30:03 10:33:32 27° 264° (W) 10:37:03 437.425
UWE-3 29 Mar 10:31:08 10:34:15 20° 294° (WNW) 10:37:18 435.000/436.395/437.385
EO-79 29 Mar 10:33:17 10:35:02 12° 62° (ENE) 10:36:46 145.935-145.965
YUBILEINY 29 Mar 10:38:29 10:41:41 12° 305° (NW) 10:44:54 435.215
UNISAT 6 29 Mar 10:39:29 10:44:02 49° 261° (W) 10:48:33 437.425
Oscar 11 29 Mar 10:50:56 10:54:31 26° 292° (WNW) 10:58:06 .
POLYITAN 1 29 Mar 11:00:29 11:03:54 24° 67° (ENE) 11:07:19 437.675
RS-15 29 Mar 11:02:50 11:11:59 27° 101° (E) 11:21:19 29.354- 29.394
HO-68 29 Mar 11:03:36 11:06:52 14° 310° (NW) 11:10:08 435.675
QB50P2 29 Mar 11:04:59 11:08:39 28° 68° (ENE) 11:12:18 145.880/145.840
ZACube-1 29 Mar 11:05:17 11:07:40 15° 296° (WNW) 11:10:02 437.345
DELFI C3 29 Mar 11:08:36 11:12:27 47° 287° (WNW) 11:16:17 145.870
DUCHIFAT 1 29 Mar 11:12:20 11:15:51 26° 68° (ENE) 11:19:23 145.980
BUGSAT 1 29 Mar 11:18:25 11:19:19 11° 61° (ENE) 11:20:13 437.445
AIST 2D 29 Mar 11:24:23 11:27:54 72° 76° (ENE) 11:31:25 435.315
LO-87 29 Mar 11:45:11 11:48:46 50° 100° (E) 11:52:17 145.935 - 145.965
NANOSAT C BR1 29 Mar 11:59:17 12:03:32 87° 256° (WSW) 12:07:50 145.865
FO-29 29 Mar 12:02:12 12:08:28 27° 267° (W) 12:14:27 435.910
ESTCUBE 1 29 Mar 12:02:29 12:06:45 40° 98° (E) 12:11:00 437.505/2401.250
EO-79 29 Mar 12:05:59 12:10:14 67° 259° (W) 12:14:31 145.935-145.965
Oscar 19 29 Mar 12:06:19 12:08:58 14° 59° (ENE) 12:11:36 437.125/150
50 SAT 29 Mar 12:26:48 12:27:29 10° 91° (E) 12:28:09 437.505
NO-84 29 Mar 12:30:55 12:33:46 34° 35° (NE) 12:36:48 435.350 FM
POLYITAN 1 29 Mar 12:35:42 12:39:31 31° 263° (W) 12:43:22 437.675
QB50P2 29 Mar 12:40:48 12:44:23 26° 265° (W) 12:47:59 145.880/145.840
Gurwin Techsat 1B 29 Mar 12:45:24 12:49:06 20° 62° (ENE) 12:52:50 435.225
DUCHIFAT 1 29 Mar 12:47:46 12:51:26 28° 264° (W) 12:55:06 145.980
BUGSAT 1 29 Mar 12:49:47 12:54:01 78° 256° (WSW) 12:58:18 437.445
VELOX 1 29 Mar 13:00:49 13:05:11 51° 100° (E) 13:09:31 145.980
UKube-1 29 Mar 13:02:05 13:04:30 15° 92° (E) 13:06:55 .
RS-15 29 Mar 13:10:52 13:22:55 87° 302° (WNW) 13:35:24 29.354- 29.394
SPROUT 29 Mar 13:20:26 13:24:44 76° 102° (ESE) 13:28:59 437.525
LO-87 29 Mar 13:20:31 13:21:45 11° 296° (WNW) 13:23:00 145.935 - 145.965
ESTCUBE 1 29 Mar 13:39:56 13:43:17 21° 295° (WNW) 13:46:37 437.505/2401.250
Oscar 19 29 Mar 13:42:30 13:47:36 79° 256° (WSW) 13:52:46 437.125/150
AO-7 29 Mar 13:50:39 13:56:57 25° 53° (NE) 14:03:15 .
50 SAT 29 Mar 13:57:23 14:00:45 45° 287° (WNW) 14:04:07 437.505
ITAMSAT 1 29 Mar 13:59:49 14:03:00 16° 60° (ENE) 14:06:10 435.822/435.867
SO-50 29 Mar 14:02:15 14:06:39 44° 117° (ESE) 14:11:01 436.795
DX 1 29 Mar 14:03:08 14:07:33 84° 284° (WNW) 14:11:56 434.975-435.025
NO-84 29 Mar 14:08:36 14:11:12 23° 229° (SW) 14:13:59 435.350 FM
Gurwin Techsat 1B 29 Mar 14:23:21 14:28:35 59° 259° (W) 14:33:51 435.225
UKube-1 29 Mar 14:36:37 14:40:49 51° 288° (WNW) 14:45:01 .
VELOX 1 29 Mar 14:38:23 14:41:13 17° 297° (WNW) 14:44:03 145.980
ITUPSAT 1 29 Mar 14:41:29 14:43:46 13° 90° (E) 14:46:02 437.325
SPROUT 29 Mar 14:58:53 15:00:00 11° 299° (WNW) 15:01:07 437.525
RS-15 29 Mar 15:26:35 15:37:25 35° 330° (NNW) 15:48:25 29.354- 29.394
ITAMSAT 1 29 Mar 15:36:40 15:41:52 70° 257° (WSW) 15:47:07 435.822/435.867
AO-7 29 Mar 15:40:29 15:48:50 82° 253° (WSW) 15:57:12 .
SO-50 29 Mar 15:43:25 15:47:16 25° 315° (NW) 15:51:06 436.795
MOZHAYETS 4 29 Mar 15:46:08 15:50:01 27° 95° (E) 15:53:51
BEESAT 29 Mar 15:58:41 16:03:28 84° 104° (ESE) 16:08:13 436.000
ITUPSAT 1 29 Mar 16:17:18 16:22:02 66° 287° (WNW) 16:26:44 437.325
O/OREOS (USA 219) 29 Mar 16:32:43 16:37:11 63° 109° (ESE) 16:41:43 437.305
KKS-1 29 Mar 16:39:42 16:43:02 20° 94° (E) 16:46:21 437.445
CUBESAT XI-V 29 Mar 16:47:44 16:51:14 21° 93° (E) 16:54:43 437.345
YUBILEINY 29 Mar 16:49:25 16:53:40 14° 57° (ENE) 16:57:51 435.215
DOVE 4 29 Mar 17:00:05 17:03:34 20° 63° (ENE) 17:07:10 437.250
XW-2C 29 Mar 17:04:59 17:06:12 11° 64° (ENE) 17:07:25 145.795 - 145.815
STARS 29 Mar 17:06:31 17:09:25 17° 93° (E) 17:12:18 437.465
MOZHAYETS 4 29 Mar 17:23:10 17:27:08 30° 291° (WNW) 17:31:05
PCSat 29 Mar 17:32:58 17:37:50 32° 50° (NE) 17:42:40 145.827
AO-7 29 Mar 17:38:01 17:42:45 16° 271° (W) 17:47:29 .
BEESAT 29 Mar 17:38:48 17:40:33 12° 301° (WNW) 17:42:17 436.000
RS-15 29 Mar 17:45:34 17:55:08 25° 5° (N) 18:04:35 29.354- 29.394
CUTE-I 29 Mar 17:51:18 17:56:22 45° 69° (ENE) 18:01:29 437.470
XW-2F 29 Mar 17:51:49 17:55:19 37° 72° (ENE) 17:58:49 145.980 - 146.000
HO-68 29 Mar 17:57:04 18:01:58 20° 55° (NE) 18:06:51 435.675
LilacSat-2 29 Mar 17:59:22 18:03:04 51° 74° (ENE) 18:06:47 437.200
NUDT-PHONESAT 29 Mar 18:06:41 18:10:16 47° 74° (ENE) 18:13:52 437.300
O/OREOS (USA 219) 29 Mar 18:14:18 18:17:03 16° 308° (NW) 18:19:49 437.305
KKS-1 29 Mar 18:15:32 18:19:44 39° 290° (WNW) 18:23:52 437.445
KAITUO 1B 29 Mar 18:18:23 18:22:06 68° 76° (ENE) 18:25:49 145.475/437.950
XW-2D 29 Mar 18:19:42 18:23:30 89° 254° (WSW) 18:27:19 145.860 - 145.880
CUBESAT XI-V 29 Mar 18:24:22 18:28:44 41° 289° (WNW) 18:33:06 437.345
XW-2B 29 Mar 18:25:45 18:29:33 77° 258° (WSW) 18:33:21 145.730 - 145.750
DOVE 4 29 Mar 18:36:10 18:40:47 50° 262° (W) 18:45:43 437.250
XW-2C 29 Mar 18:36:11 18:39:55 55° 260° (W) 18:43:39 145.795 - 145.815
CUTE 1.7 + AOD 2 29 Mar 18:38:01 18:40:51 18° 66° (ENE) 18:43:42 437.475
STARS 29 Mar 18:41:45 18:45:58 45° 289° (WNW) 18:50:09 437.465
YUBILEINY 29 Mar 18:43:36 18:52:18 69° 79° (E) 19:00:59 435.215
XW-2A 29 Mar 18:56:38 18:59:40 29° 71° (ENE) 19:02:43 145.665 - 145.685
CUBEBUG 2 29 Mar 18:57:18 19:00:11 16° 64° (ENE) 19:03:04 437.445
STRAND 1 29 Mar 19:05:24 19:07:42 13° 89° (E) 19:10:00 437.568
PCSat 29 Mar 19:16:15 19:21:18 40° 248° (WSW) 19:26:19 145.827
M-CUBED/EXP-1 PRIME 29 Mar 19:26:01 19:30:38 57° 105° (ESE) 19:35:12 437.505
XW-2F 29 Mar 19:27:26 19:29:36 15° 268° (W) 19:31:48 145.980 - 146.000
Tancredo 1 29 Mar 19:32:11 19:35:08 38° 139° (SE) 19:38:07 437.200
CUTE-I 29 Mar 19:32:18 19:36:35 24° 266° (W) 19:40:55 437.470
AAUSAT CUBESAT 2 29 Mar 19:33:06 19:36:17 22° 67° (ENE) 19:39:29 437.432
LilacSat-2 29 Mar 19:36:30 19:37:39 11° 270° (W) 19:38:47 437.200
HO-68 29 Mar 19:41:39 19:48:48 85° 253° (WSW) 19:56:01 435.675
NUDT-PHONESAT 29 Mar 19:43:08 19:44:27 11° 269° (W) 19:45:46 437.300
AO-85 29 Mar 19:44:18 19:48:01 26° 115° (ESE) 19:51:33 145.980
ISS 29 Mar 19:48:22 19:51:31 50° 140° (SE) 19:54:41 437.550
UWE-3 29 Mar 19:50:54 19:55:03 33° 70° (ENE) 19:59:08 435.000/436.395/437.385
SEEDS 29 Mar 19:58:20 20:02:30 89° 64° (ENE) 20:06:40 437.485
RS-15 29 Mar 20:00:32 20:12:10 43° 38° (NE) 20:23:20 29.354- 29.394
Oscar 11 29 Mar 20:10:06 20:13:31 23° 67° (ENE) 20:16:56 .
CUTE 1.7 + AOD 2 29 Mar 20:12:25 20:16:23 40° 262° (W) 20:20:22 437.475
ZACube-1 29 Mar 20:23:19 20:27:34 42° 72° (ENE) 20:31:46 437.345
XW-2A 29 Mar 20:30:25 20:32:30 15° 267° (W) 20:34:36 145.665 - 145.685
CUBEBUG 2 29 Mar 20:31:39 20:36:19 59° 260° (W) 20:40:59 437.445
YUBILEINY 29 Mar 20:41:37 20:48:17 26° 279° (W) 20:54:57 435.215
STRAND 1 29 Mar 20:42:19 20:47:26 75° 286° (WNW) 20:52:30 437.568
AO-73 29 Mar 20:49:16 20:53:46 73° 75° (ENE) 20:58:11 145.935
